GW1075 Weather Reports


time (UTC)temp
C
wind
direction
speed
KPH
gust
KPH
rain 1hr
cm
rain 24hr
cm
rain mn
cm
humidity
%
barometer
mb
20260506045005 18 277 1.6 12.9 0.00 0.25 0.25 74 1010.3
20260506044513 18 288 3.2 9.7 0.00 0.25 0.25 73 1010.2
20260506044004 18 279 3.2 11.3 0.00 0.25 0.25 73 1010.2
20260506043505 19 360 3.2 11.3 0.00 0.25 0.25 72 1010.2
20260506043013 20 302 1.6 8.0 0.00 0.25 0.25 73 1010.1
20260506042505 20 33 1.6 8.0 0.00 0.25 0.25 73 1009.9
20260506042006 20 55 1.6 6.4 0.00 0.25 0.25 72 1009.8
20260506041510 20 309 0.0 6.4 0.00 0.25 0.25 73 1009.8
20260506041007 20 311 1.6 6.4 0.00 0.25 0.25 73 1009.7
20260506040506 20 84 3.2 11.3 0.00 0.25 0.25 72 1009.4
20260506040014 20 5 3.2 11.3 0.00 0.25 0.25 72 1009.3
20260506035510 21 52 1.6 8.0 0.00 0.25 0.25 72 1009.5
20260506035009 21 337 1.6 9.7 0.00 0.25 0.25 72 1009.5
20260506034510 21 52 3.2 11.3 0.00 0.25 0.25 72 1009.3
20260506034002 21 346 3.2 11.3 0.00 0.25 0.25 71 1009.3
20260506033502 21 289 3.2 8.0 0.00 0.25 0.25 72 1009.1
20260506033002 21 15 3.2 14.5 0.00 0.25 0.25 72 1009.0
20260506032502 21 40 3.2 14.5 0.00 0.25 0.25 72 1009.0
20260506032005 21 96 1.6 9.7 0.00 0.25 0.25 72 1008.9
20260506031506 21 38 1.6 8.0 0.00 0.25 0.25 71 1008.7
20260506031004 22 352 1.6 8.0 0.00 0.25 0.25 71 1008.8
20260506030507 22 53 3.2 9.7 0.00 0.25 0.25 71 1008.8
20260506030024 22 346 1.6 9.7 0.00 0.25 0.25 70 1008.8
20260506025506 22 272 1.6 6.4 0.00 0.25 0.25 69 1008.5
20260506025007 22 307 1.6 8.0 0.00 0.25 0.25 69 1008.4
20260506024537 22 360 1.6 9.7 0.00 0.25 0.25 68 1008.1
20260506024009 22 339 3.2 8.0 0.00 0.25 0.25 68 1008.1
20260506023503 22 350 3.2 8.0 0.00 0.25 0.25 68 1007.9
20260506023010 23 55 1.6 12.9 0.00 0.25 0.25 68 1007.6
20260506022504 23 20 3.2 12.9 0.00 0.25 0.25 69 1007.6
20260506022002 23 42 1.6 8.0 0.00 0.25 0.25 69 1007.2
20260506021503 23 21 1.6 8.0 0.00 0.25 0.25 69 1007.0
20260506021006 23 74 1.6 8.0 0.00 0.25 0.25 69 1007.0
20260506020502 23 32 1.6 9.7 0.00 0.25 0.25 68 1007.0
20260506020010 23 287 1.6 9.7 0.00 0.25 0.25 68 1007.1
20260506015506 23 350 1.6 8.0 0.00 0.25 0.25 69 1006.8
20260506015007 23 352 1.6 8.0 0.00 0.25 0.25 69 1006.9
20260506014516 23 352 1.6 6.4 0.00 0.25 0.25 70 1007.0
20260506014006 23 46 3.2 6.4 0.00 0.25 0.25 70 1006.8
20260506013511 23 360 0.0 14.5 0.00 0.25 0.25 70 1006.5
20260506013032 24 23 3.2 14.5 0.00 0.25 0.25 69 1006.4
20260506012508 24 15 1.6 8.0 0.00 0.25 0.25 70 1006.5
20260506012004 24 46 1.6 8.0 0.00 0.25 0.25 69 1006.7
20260506011503 24 312 1.6 8.0 0.00 0.25 0.25 69 1006.8
20260506011007 25 86 1.6 6.4 0.00 0.25 0.25 70 1006.3
20260506010502 24 156 0.0 6.4 0.00 0.25 0.25 72 1006.0
20260506010010 24 26 1.6 6.4 0.10 0.25 0.25 74 1006.1
20260506005503 24 56 0.0 3.2 0.20 0.25 0.25 76 1005.6
20260506005006 24 360 1.6 3.2 0.25 0.25 0.25 74 1005.9
20260506004512 24 341 0.0 3.2 0.25 0.25 0.25 73 1005.9
20260506004008 23 317 1.6 3.2 0.25 0.25 0.25 75 1005.9
20260506003506 24 315 0.0 4.8 0.25 0.25 0.25 75 1006.0
20260506003017 24 67 0.0 11.3 0.25 0.25 0.25 74 1005.8
20260506002508 25 352 3.2 11.3 0.25 0.25 0.25 72 1006.0
20260506002010 25 344 1.6 16.1 0.25 0.25 0.25 75 1005.9
20260506001521 25 275 4.8 16.1 0.25 0.25 0.25 75 1005.8
20260506001009 25 310 1.6 3.2 0.25 0.25 0.25 82 1005.9
20260506000505 26 352 0.0 3.2 0.25 0.25 0.25 79 1005.5
20260506000007 27 54 1.6 8.0 0.15 0.15 0.15 76 1005.3
20260505235502 28 325 1.6 8.0 0.05 0.05 0.05 66 1005.3
20260505235005 28 153 1.6 6.4 0.00 0.00 0.00 55 1004.7
20260505234512 29 11 1.6 12.9 0.00 0.00 0.00 67 1005.0
20260505234008 29 27 1.6 12.9 0.00 0.00 0.00 67 1005.1
20260505233505 29 320 1.6 16.1 0.00 0.00 0.00 66 1004.8
20260505233020 29 170 6.4 16.1 0.00 0.00 0.00 65 1004.7
20260505232511 30 139 6.4 14.5 0.00 0.00 0.00 64 1004.8
20260505232007 30 147 3.2 16.1 0.00 0.00 0.00 63 1004.7
20260505231519 31 292 4.8 16.1 0.00 0.00 0.00 62 1004.6
20260505231009 31 171 3.2 14.5 0.00 0.00 0.00 61 1004.7
20260505230508 31 168 4.8 12.9 0.00 0.00 0.00 60 1004.5
20260505230040 32 167 4.8 12.9 0.00 0.00 0.00 58 1004.5
20260505225511 32 154 3.2 12.9 0.00 0.00 0.00 58 1004.4
20260505225003 31 150 3.2 9.7 0.00 0.00 0.00 58 1004.5
20260505224509 31 273 1.6 14.5 0.00 0.00 0.00 58 1004.5
20260505224011 32 111 3.2 14.5 0.00 0.00 0.00 56 1004.6
20260505223505 32 150 4.8 12.9 0.00 0.00 0.00 51 1004.6
20260505223012 32 178 3.2 12.9 0.00 0.00 0.00 54 1004.4
20260505222506 32 254 3.2 12.9 0.00 0.00 0.00 51 1004.4
20260505222009 32 246 1.6 14.5 0.00 0.00 0.00 52 1004.5
20260505221516 32 230 3.2 14.5 0.00 0.00 0.00 51 1004.6
20260505221006 32 157 3.2 14.5 0.00 0.00 0.00 50 1004.6
20260505220506 32 242 1.6 14.5 0.00 0.00 0.00 52 1004.5
20260505220023 32 316 1.6 9.7 0.00 0.00 0.00 51 1004.3
20260505215509 33 199 1.6 12.9 0.00 0.00 0.00 50 1004.5
20260505215009 32 180 1.6 12.9 0.00 0.00 0.00 49 1004.6
20260505214524 32 294 1.6 9.7 0.00 0.00 0.00 50 1004.6
20260505214006 32 148 3.2 14.5 0.00 0.00 0.00 49 1004.6
20260505213506 32 133 4.8 14.5 0.00 0.00 0.00 51 1004.6
20260505213009 32 231 4.8 14.5 0.00 0.00 0.00 50 1004.7
20260505212509 32 329 3.2 11.3 0.00 0.00 0.00 50 1004.6
20260505212007 33 105 3.2 9.7 0.00 0.00 0.00 51 1004.7
20260505211514 32 46 3.2 11.3 0.00 0.00 0.00 51 1004.8
20260505211007 32 194 3.2 11.3 0.00 0.00 0.00 51 1004.8
20260505210506 32 217 3.2 14.5 0.00 0.00 0.00 51 1004.9
20260505210020 32 307 3.2 17.7 0.00 0.00 0.00 52 1004.9
20260505205507 32 350 3.2 19.3 0.00 0.00 0.00 51 1005.0
20260505205013 33 290 4.8 22.5 0.00 0.00 0.00 52 1005.0
20260505204525 32 360 3.2 22.5 0.00 0.00 0.00 53 1005.1
20260505204010 31 260 3.2 16.1 0.00 0.00 0.00 53 1005.3
20260505203510 32 290 4.8 16.1 0.00 0.00 0.00 51 1005.3
20260505203040 32 296 3.2 11.3 0.00 0.00 0.00 52 1005.2
20260505202503 32 273 3.2 17.7 0.00 0.00 0.00 54 1005.3
20260505202008 32 360 3.2 20.9 0.00 0.00 0.00 53 1005.3
20260505201513 32 219 4.8 20.9 0.00 0.00 0.00 53 1005.4
20260505201007 32 265 3.2 16.1 0.00 0.00 0.00 55 1005.4
20260505200506 31 178 3.2 17.7 0.00 0.00 0.00 56 1005.5
20260505200027 31 101 4.8 17.7 0.00 0.00 0.00 56 1005.5
20260505195506 31 293 4.8 19.3 0.00 0.00 0.00 56 1005.4
20260505195008 31 230 4.8 19.3 0.00 0.00 0.00 60 1005.4
20260505194523 31 140 4.8 14.5 0.00 0.00 0.00 58 1005.4
20260505194009 31 240 3.2 14.5 0.00 0.00 0.00 59 1005.6
20260505193509 30 105 4.8 16.1 0.00 0.00 0.00 58 1005.6
20260505193023 30 174 4.8 16.1 0.00 0.00 0.00 59 1005.5
20260505192507 30 171 3.2 17.7 0.00 0.00 0.00 58 1005.6
20260505192004 30 270 3.2 17.7 0.00 0.00 0.00 59 1005.7
20260505191512 30 212 6.4 16.1 0.00 0.00 0.00 61 1005.5
20260505191008 30 257 3.2 17.7 0.00 0.00 0.00 61 1005.5
20260505190511 30 119 6.4 17.7 0.00 0.00 0.00 61 1005.6
20260505190021 30 276 4.8 17.7 0.00 0.00 0.00 62 1005.6
20260505185511 30 274 3.2 17.7 0.00 0.00 0.00 62 1005.7
20260505185006 29 216 4.8 14.5 0.00 0.00 0.00 64 1005.7
20260505184524 29 253 4.8 16.1 0.00 0.00 0.00 64 1005.7
20260505184009 28 159 3.2 16.1 0.00 0.00 0.00 64 1005.9
20260505183509 28 165 6.4 16.1 0.00 0.00 0.00 65 1006.1
20260505183026 28 219 3.2 16.1 0.00 0.00 0.00 66 1006.0
20260505182502 28 279 1.6 16.1 0.00 0.00 0.00 66 1005.9
20260505182006 28 264 3.2 12.9 0.00 0.00 0.00 65 1006.0
20260505181508 28 111 4.8 12.9 0.00 0.00 0.00 65 1006.0
20260505181006 28 148 3.2 11.3 0.00 0.00 0.00 65 1006.0
20260505180510 28 221 3.2 12.9 0.00 0.00 0.00 65 1006.0
20260505180011 28 157 3.2 14.5 0.00 0.00 0.00 67 1006.2
20260505175510 28 179 3.2 14.5 0.00 0.00 0.00 66 1006.1
20260505175008 28 155 3.2 16.1 0.00 0.00 0.00 65 1006.0
20260505174518 28 217 3.2 16.1 0.00 0.00 0.00 65 1006.1
20260505174007 28 173 4.8 11.3 0.00 0.00 0.00 65 1006.1
20260505173514 28 42 3.2 19.3 0.00 0.00 0.00 65 1006.1
20260505173036 28 292 4.8 19.3 0.00 0.00 0.00 66 1006.0
20260505172507 28 264 3.2 17.7 0.00 0.00 0.00 67 1006.0
20260505172012 27 238 4.8 16.1 0.00 0.00 0.00 65 1006.1
20260505171506 27 198 4.8 20.9 0.00 0.00 0.00 66 1006.1
20260505171005 27 165 6.4 20.9 0.00 0.00 0.00 66 1006.1
20260505170505 27 252 6.4 27.4 0.00 0.00 0.00 66 1006.2
20260505170013 27 241 6.4 27.4 0.00 0.00 0.00 66 1006.2
20260505165506 27 82 3.2 17.7 0.00 0.00 0.00 68 1006.2
20260505165007 26 315 3.2 19.3 0.00 0.00 0.00 69 1006.1
20260505164535 27 245 6.4 19.3 0.00 0.00 0.00 68 1006.2
20260505164008 27 336 6.4 16.1 0.00 0.00 0.00 68 1006.2
20260505163508 26 169 4.8 14.5 0.00 0.00 0.00 1006.2
20260505163023 26 223 6.4 17.7 0.00 0.00 0.00 68 1006.3
20260505162508 27 152 4.8 25.7 0.00 0.00 0.00 68 1006.1
20260505162012 27 259 8.0 19.3 0.00 0.00 0.00 68 1006.1
20260505161526 26 168 6.4 17.7 0.00 0.00 0.00 69 1005.9
20260505161010 26 210 6.4 19.3 0.00 0.00 0.00 70 1005.9
20260505160508 26 172 6.4 19.3 0.00 0.00 0.00 70 1006.0
20260505153022 25 171 4.8 20.9 0.00 0.00 0.00 72 1006.0
20260505152508 25 54 4.8 20.9 0.00 0.00 0.00 72 1006.1
20260505152009 25 99 3.2 20.9 0.00 0.00 0.00 74 1006.1
20260505151524 25 171 4.8 20.9 0.00 0.00 0.00 74 1006.2
20260505151009 25 260 6.4 20.9 0.00 0.00 0.00 74 1006.2
20260505150510 25 202 3.2 14.5 0.00 0.00 0.00 74 1006.2
20260505140511 23 349 3.2 14.5 0.00 0.00 0.00 78 1006.2
20260505125015 22 179 3.2 16.1 0.00 0.00 0.00 82 1005.6
20260505124530 21 224 3.2 16.1 0.00 0.00 0.00 82 1005.7
20260505124017 21 157 3.2 9.7 0.00 0.00 0.00 82 1005.6
20260505123514 21 270 1.6 12.9 0.00 0.00 0.00 82 1005.5
20260505123025 21 198 4.8 12.9 0.00 0.00 0.00 82 1005.4
20260505122511 21 239 1.6 16.1 0.00 0.00 0.00 82 1005.2
20260505122013 21 167 3.2 16.1 0.00 0.00 0.00 82 1005.1
20260505121518 21 271 3.2 14.5 0.00 0.00 0.00 82 1005.0
20260505121007 21 331 4.8 14.5 0.00 0.00 0.00 83 1005.2
20260505120508 21 180 4.8 12.9 0.00 0.00 0.00 83 1005.2
20260505120023 21 172 1.6 16.1 0.00 0.00 0.00 83 1005.2
20260505115511 21 115 3.2 16.1 0.00 0.00 0.00 83 1005.1
20260505115012 21 166 4.8 19.3 0.00 0.00 0.00 83 1005.0
20260505114533 21 170 6.4 19.3 0.00 0.00 0.00 83 1004.9
20260505114009 21 345 3.2 14.5 0.00 0.00 0.00 83 1004.9
20260505113509 21 271 3.2 11.3 0.00 0.00 0.00 83 1005.0
20260505113028 21 206 4.8 11.3 0.00 0.00 0.00 83 1005.0
20260505112509 21 166 1.6 9.7 0.00 0.00 0.00 83 1004.8
20260505112010 21 225 3.2 20.9 0.00 0.00 0.00 83 1004.9
20260505111532 21 192 1.6 20.9 0.00 0.00 0.00 83 1004.9
20260505111011 21 272 1.6 12.9 0.00 0.00 0.00 83 1005.0
20260505110507 21 193 4.8 12.9 0.00 0.00 0.00 83 1005.0
20260505102006 21 268 3.2 20.9 0.00 0.00 0.00 82 1004.8
20260505101512 21 163 4.8 20.9 0.00 0.00 0.00 82 1004.8
20260505101006 21 178 6.4 16.1 0.00 0.00 0.00 82 1005.1
20260505100507 21 128 3.2 14.5 0.00 0.00 0.00 82 1005.1
20260505100021 21 154 3.2 16.1 0.00 0.00 0.00 82 1005.1
20260505095510 21 312 3.2 16.1 0.00 0.00 0.00 82 1005.0
20260505095009 21 131 3.2 17.7 0.00 0.00 0.00 82 1005.1
20260505094524 21 178 3.2 19.3 0.00 0.00 0.00 82 1005.2
20260505094014 21 178 6.4 17.7 0.00 0.00 0.00 82 1005.1
20260505093510 21 140 4.8 16.1 0.00 0.00 0.00 81 1005.2
20260505093027 21 155 3.2 9.7 0.00 0.00 0.00 82 1005.4
20260505092512 21 179 3.2 16.1 0.00 0.00 0.00 82 1005.3
20260505092012 21 144 6.4 16.1 0.00 0.00 0.00 82 1005.4
20260505091534 21 207 1.6 16.1 0.00 0.00 0.00 82 1005.4
20260505091009 21 181 6.4 14.5 0.00 0.00 0.00 82 1005.4
20260505090508 21 260 3.2 17.7 0.00 0.00 0.00 82 1005.5
20260505090024 21 209 4.8 17.7 0.00 0.00 0.00 82 1005.5
20260505085509 21 135 1.6 14.5 0.00 0.00 0.00 82 1005.5
20260505085007 21 163 4.8 14.5 0.00 0.00 0.00 82 1005.5
20260505084530 21 183 6.4 14.5 0.00 0.00 0.00 82 1005.4
20260505084010 21 317 3.2 20.9 0.00 0.00 0.00 82 1005.4
20260505083511 21 129 3.2 20.9 0.00 0.00 0.00 82 1005.4
20260505083035 21 122 3.2 17.7 0.00 0.00 0.00 82 1005.4
20260505082510 21 247 6.4 20.9 0.00 0.00 0.00 82 1005.5
20260505082012 21 152 6.4 20.9 0.00 0.00 0.00 82 1005.5
20260505081545 21 152 6.4 19.3 0.00 0.00 0.00 82 1005.6
20260505081010 21 201 4.8 16.1 0.00 0.00 0.00 82 1005.6
20260505080508 21 254 3.2 17.7 0.00 0.00 0.00 81 1005.6
20260505080038 21 171 4.8 17.7 0.00 0.00 0.00 81 1005.6
20260505075507 21 278 4.8 16.1 0.00 0.00 0.00 81 1005.7
20260505075007 21 197 4.8 12.9 0.00 0.00 0.00 81 1005.8
20260505074521 21 242 4.8 17.7 0.00 0.00 0.00 81 1005.8
20260505074007 21 180 4.8 17.7 0.00 0.00 0.00 80 1005.9
20260505073510 21 210 4.8 12.9 0.00 0.00 0.00 80 1006.0
20260505073025 21 223 4.8 12.9 0.00 0.00 0.00 80 1006.1
20260505072504 21 167 4.8 22.5 0.00 0.00 0.00 80 1006.1
20260505072007 21 215 3.2 22.5 0.00 0.00 0.00 79 1006.3
20260505071512 21 109 3.2 20.9 0.00 0.00 0.00 79 1006.4
20260505071006 21 156 4.8 20.9 0.00 0.00 0.00 79 1006.6
20260505070508 21 183 4.8 14.5 0.00 0.00 0.00 79 1006.7
20260505070012 21 282 4.8 20.9 0.00 0.00 0.00 79 1006.5
20260505065507 21 242 6.4 22.5 0.00 0.00 0.00 78 1006.5
20260505065002 22 152 6.4 22.5 0.00 0.00 0.00 78 1006.7
20260505064504 22 112 3.2 14.5 0.00 0.00 0.00 78 1006.7
20260505064003 22 187 4.8 16.1 0.00 0.00 0.00 78 1006.9
20260505063503 22 114 1.6 16.1 0.00 0.00 0.00 78 1006.8
20260505063005 22 135 4.8 11.3 0.00 0.00 0.00 77 1006.9
20260505062503 22 155 3.2 11.3 0.00 0.00 0.00 77 1006.8
20260505062003 22 223 3.2 11.3 0.00 0.00 0.00 77 1006.8
20260505061522 22 181 4.8 17.7 0.00 0.00 0.00 77 1006.9
20260505061007 22 161 4.8 17.7 0.00 0.00 0.00 76 1006.9
20260505060509 22 78 3.2 16.1 0.00 0.00 0.00 76 1006.8
20260505060013 22 256 1.6 14.5 0.00 0.00 0.00 76 1007.0
20260505055510 22 298 3.2 11.3 0.00 0.00 0.00 76 1006.8
20260505055007 22 276 4.8 14.5 0.00 0.00 0.00 76 1006.8
20260505054522 22 155 3.2 16.1 0.00 0.00 0.00 76 1006.9
20260505054003 22 127 3.2 16.1 0.00 0.00 0.00 76 1006.9
20260505053503 22 186 3.2 12.9 0.00 0.00 0.00 76 1006.9
20260505053003 22 146 3.2 16.1 0.00 0.00 0.00 75 1007.0
20260505052505 22 159 4.8 16.1 0.00 0.00 0.00 75 1007.0
20260505052003 22 115 3.2 14.5 0.00 0.00 0.00 75 1007.1
20260505051503 22 194 4.8 14.5 0.00 0.00 0.00 75 1007.1
20260505051003 22 188 3.2 16.1 0.00 0.00 0.00 75 1007.2
20260505050504 22 143 3.2 16.1 0.00 0.00 0.00 75 1007.1